www.pogodaiklimat.ru

Погода и климат >> Архив погоды >> Италия >> Милан


АРХИВ ПОГОДЫ в Милане

Время (UTC), дата Ветер
(напр.,м/с)
 
Видим.   Явления Облачность Т
(С)
Тd
(С)
f
(%)
Тe
(С)
Тes
(С)
Комфортность P
(гПа)
Po
(гПа)
Тmin
(С)
Tmax
(С)
R
(мм)
R24
(мм)
S
(см)
12 16.09 Ю 4 н/о н/о +27.9 +16.9 51 +32 +32 душно 1018.3 1005.4
15 16.09 ЮЗ 2 н/о н/о +28.8 +17.5 50 +33 +33 очень
душно
1016.1 1003.2
18 16.09 Ю 1 н/о н/о +25.7 +18.3 64 +30 +30 душно 1015.8 1002.9 +29.1
21 16.09 ЮЗ 2 н/о н/о +23.1 +18.1 73 +29 +29 очень
душно
1016.7 1003.8
00 17.09 С 1 н/о н/о +20.3 +16.1 77 +24 +24 комфорт 1016.2 1003.3
03 17.09 ЮЗ 1 н/о н/о +19.7 +15.6 77 +23 +23 комфорт 1015.5 1002.6
06 17.09 ЮЗ 1 н/о н/о +20.0 +15.5 75 +23 +23 комфорт 1015.6 1002.7 +18.4
09 17.09 ЮЗ 4 н/о н/о +24.8 +18.1 66 +29 +29 душно 1015.8 1003.0
12 17.09 З 3 н/о н/о +28.3 +17.7 53 +33 +33 очень
душно
1013.9 1001.0
15 17.09 ЮЗ 5 н/о н/о +29.4 +18.4 52 +34 +34 очень
душно
1012.2 999.4
18 17.09 ЮЗ 3 н/о н/о +25.4 +16.6 58 +29 +29 душно 1012.3 999.5 +29.9
21 17.09 З 3 н/о н/о +22.6 +16.4 68 +27 +27 душно 1013.7 1000.8
00 18.09 СЗ 2 н/о н/о +21.1 +16.7 76 +25 +25 комфорт 1013.9 1001.1
03 18.09 н/о н/о +19.3 +16.2 82 1014.2 1001.3
06 18.09 н/о н/о +18.4 +16.2 87 1015.3 1002.4 +17.7
09 18.09 З 2 н/о н/о +24.1 +16.6 63 +28 +28 душно 1016.3 1003.4
12 18.09 ЮЗ 1 н/о н/о +26.1 +15.9 53 +29 +29 жарко 1016.0 1003.1
15 18.09 н/о н/о +26.4 +16.1 53 1014.4 1001.5
18 18.09 В 7 н/о н/о +22.5 +18.4 78 +28 +28 душно 1015.6 1002.7 +27.4
21 18.09 В 6 н/о н/о +20.1 +17.5 85 +23 +23 комфорт 1017.3 1004.4
00 19.09 В 3 н/о н/о +18.9 +15.5 81 +20 +20 1017.9 1005.0
03 19.09 В 3 н/о н/о +17.3 +14.7 85 +17 +17 1017.9 1005.0
06 19.09 В 3 н/о н/о +16.4 +12.7 79 +16 +16 1019.0 1006.1 +16.4
09 19.09 В 3 н/о н/о +16.8 +12.1 74 +17 +17 1020.9 1007.9
12 19.09 В 2 н/о н/о +20.5 +11.0 54 +23 +23 комфорт 1020.5 1007.6
15 19.09 В 4 н/о н/о +21.9 +8.4 42 +23 +23 комфорт 1020.0 1007.1
18 19.09 В 2 н/о н/о +19.3 +11.0 59 +21 +21 комфорт 1021.1 1008.2 +22.5
21 19.09 штиль 0 н/о н/о +16.1 +12.4 79 +16 +16 1023.8 1010.9
00 20.09 СВ 3 н/о н/о +19.4 +10.6 57 +21 +21 комфорт 1024.5 1011.6
03 20.09 В 2 н/о н/о +17.3 +9.5 60 +18 +18 1024.9 1011.9
06 20.09 В 2 н/о н/о +16.4 +7.4 55 +17 +17 1025.1 1012.1 +15.9
09 20.09 В 4 н/о н/о +17.6 +7.6 52 +17 +17 1026.5 1013.5
12 20.09 В 4 н/о н/о +19.8 +8.4 48 +21 +21 комфорт 1025.6 1012.6
15 20.09 В 2 н/о н/о +20.7 +7.7 43 +23 +23 комфорт 1024.3 1011.3
18 20.09 В 2 н/о н/о +18.6 +8.4 51 +20 +20 1024.3 1011.3 +21.4
21 20.09 В 2 н/о н/о +16.1 +9.0 63 +16 +16 1025.5 1012.5
00 21.09 СВ 3 н/о н/о +15.4 +8.3 63 +15 +15 1025.9 1012.9
03 21.09 С 1 н/о н/о +12.3 +9.0 80 +12 +12 1025.4 1012.4
06 21.09 СВ 1 н/о н/о +11.8 +9.5 86 +12 +12 1025.4 1012.4 +10.5
09 21.09 н/о н/о +19.1 +6.6 44 1025.7 1012.7
12 21.09 Ю 3 н/о н/о +21.1 +6.5 39 +22 +22 комфорт 1024.3 1011.3
15 21.09 н/о н/о +21.4 +4.9 34 1022.2 1009.2
18 21.09 Ю 1 н/о н/о +19.3 +7.7 47 +21 +21 комфорт 1022.6 1009.6 +22.6
21 21.09 В 2 н/о н/о +19.0 +8.0 49 +20 +20 1021.8 1008.9
00 22.09 СЗ 2 н/о н/о +17.4 +10.7 65 +18 +18 1021.3 1008.4
03 22.09 З 2 н/о н/о +16.5 +11.1 70 +17 +17 1020.1 1007.2
06 22.09 СЗ 3 н/о н/о +15.6 +12.7 83 +15 +15 1019.5 1006.5 +14.0
09 22.09 С 2 н/о н/о +17.3 +11.7 70 +18 +18 1019.4 1006.5
12 22.09 В 2 н/о н/о +19.4 +11.7 61 +21 +21 комфорт 1018.1 1005.2
15 22.09 ЮВ 2 н/о н/о +19.1 +10.9 59 +21 +21 комфорт 1017.3 1004.4
18 22.09 Ю 1 н/о н/о +15.9 +14.0 88 +17 +17 1016.9 1004.0 +19.9
21 22.09 Ю 2 н/о н/о +15.1 +13.1 88 +15 +15 1016.8 1003.9
00 23.09 ЮЗ 2 н/о н/о +14.5 +13.5 94 +14 +14 1016.3 1003.4
03 23.09 н/о н/о +14.5 +13.3 93 1014.7 1001.8
06 23.09 ЮЗ 2 н/о н/о +14.7 +13.4 92 +15 +15 1014.1 1001.2 +14.4
09 23.09 н/о н/о +16.5 +13.7 84 1014.1 1001.3

 

Местоположение метеостанции Милан (Италия): широта 45.43 долгота 9.28 высота над уровнем моря 103 м.

В архиве по умолчанию представлена погода в Милане за последнюю неделю. Архивные данные за месяц целиком и за предыдущие месяцы, начиная с января 2011 года, Вы можете получить, выбрав интересующий диапазон дат из раскрывающегося списка и нажав кнопку "Ввод!".


*Определитесь, кто Вы:
робот инопланетянин человек

Внимание! Время в таблицах - всемирное. Для получения местного времени необходимо прибавить поправку, которая равна 1 ч.

Смотрите также архив погоды в соседних городах и на ближайших метеорологических станциях:

Погода в Бергамо (Италия) (42 км)
Погода в Аэропорту Мальпенса (Италия) (48 км)
Погода в Новара (Италия) (49 км)
Погода в Стабио (Швейцария) (54 км)
Погода на Монте-Дженеросо (Швейцария) (59 км)
Погода в Пьяченце (Италия) (67 км)
Погода в Лугано (Швейцария) (68 км)
Погода в Казале-Монферрато (Италия) (73 км)
Погода в Брешиа (Италия) (78 км)
Погода в Локарно-Магадино (Швейцария) (88 км)

Пояснения к столбцам:

Ветер - указаны скорость ветра в м/с - средняя за 10 мин, порывы в срок и между сроками (в фигурных скобках) и направление, откуда дует ветер: С - северный, СВ - северо-восточный, В - восточный, ЮВ - юго-восточный, Ю - южный, ЮЗ - юго-западный, З - западный, СЗ - северо-западный.
Видимость - горизонтальная дальность видимости в метрах или километрах. При видимости от 1 до 10 км при отсутствии осадков обычно наблюдается дымка, при ухудшении видимости до 1 км и менее - туман. В сухую погоду видимость может ухудшаться дымом, пылью или мглою.
Явления - указаны атмосферные явления, наблюдавшиеся в срок или в последний час перед сроком; фигурными скобками обозначены явления, наблюдавшиеся между сроками (за 1-3 часа до срока); квадратными скобками обозначены град или гололедные отложения с указанием их диаметра в мм.
Облачность - указаны через наклонную черту общая и нижняя облачность в баллах и высота нижней границы облаков в метрах; квадратными скобками обозначены формы облаков: Ci - перистые, Cs - перисто-слоистые, Cc - перисто-кучевые, Ac - высококучевые, As - высокослоистые, Sc - слоисто-кучевые, Ns - слоисто-дождевые, Cu - кучевые, Cb - кучево-дождевые. Подробнее классификацию облаков см. в Атласе облаков (PDF).
T - Температура воздуха - температура, измеренная на высоте 2 м над землей.
Td - Температура точки росы - температура, при понижении до которой содержащийся в воздухе водяной пар достигнет насыщения.
f - Относительная влажность воздуха - влажноcть воздуха, измеренная на высоте 2 м над землей.
Te - Эффективная температура - температура, которую ощущает одетый по сезону человек в тени. Характеристика душности погоды. При расчете учитывается влияние влажности воздуха и скорости ветра на теплоощущения человека.
Tes - Эффективная температура на солнце - температура, которую ощущает человек, с поправкой на солнечный нагрев. Характеристика знойности погоды. Зависит от высоты солнца над горизонтом, облачности и скорости ветра. Ночью, в пасмурную погоду, а также при ветре 12 м/с и более поправка равна нулю.
P - Атмосферное давление - приведенное к уровню моря атмосферное давление.
Po - Атмосферное давление - измеренное на уровне метеостанции атмосферное давление.
Tmin - Минимальная температура - минимум температуры воздуха на высоте 2 м над землей.
Tmax - Максимальная температура - максимум температуры воздуха на высоте 2 м над землей.
R - Количество осадков - Количество выпавших осадков за период времени, мм. При наведении курсора мыши на число - период времени, за который выпало указанное количество осадков.
R24 - Количество осадков - Количество выпавших осадков за 24 часа, мм.
S - Снежный покров - Высота снежного покрова, см. При наведении курсора мыши на число - состояние снежного покрова и степень покрытия местности в баллах.